Year,Month,Day,Hour,Minute,Value (Times are PST for temperature in C)
2010,07,14,00,00,13.70
2010,07,14,00,01,13.60
2010,07,14,00,02,13.60
2010,07,14,00,03,13.60
2010,07,14,00,04,13.50
2010,07,14,00,05,13.50
2010,07,14,00,06,13.50
2010,07,14,00,07,13.40
2010,07,14,00,08,13.40
2010,07,14,00,09,13.40
2010,07,14,00,10,13.30
2010,07,14,00,11,13.30
2010,07,14,00,12,13.30
2010,07,14,00,13,13.30
2010,07,14,00,14,13.20
2010,07,14,00,15,13.20
2010,07,14,00,16,13.20
2010,07,14,00,17,13.20
2010,07,14,00,18,13.10
2010,07,14,00,19,13.10
2010,07,14,00,20,13.10
2010,07,14,00,21,13.10
2010,07,14,00,22,13.10
2010,07,14,00,23,13.00
2010,07,14,00,24,13.00
2010,07,14,00,25,13.00
2010,07,14,00,26,12.90
2010,07,14,00,27,12.90
2010,07,14,00,28,12.90
2010,07,14,00,29,12.90
2010,07,14,00,30,12.90
2010,07,14,00,31,12.80
2010,07,14,00,32,12.80
2010,07,14,00,33,12.80
2010,07,14,00,34,12.80
2010,07,14,00,35,12.80
2010,07,14,00,36,12.80
2010,07,14,00,37,12.80
2010,07,14,00,38,12.80
2010,07,14,00,39,12.70
2010,07,14,00,40,12.70
2010,07,14,00,41,12.70
2010,07,14,00,42,12.70
2010,07,14,00,43,12.60
2010,07,14,00,44,12.60
2010,07,14,00,45,12.60
2010,07,14,00,46,12.60
2010,07,14,00,47,12.60
2010,07,14,00,48,12.50
2010,07,14,00,49,12.50
2010,07,14,00,50,12.50
2010,07,14,00,51,12.40
2010,07,14,00,52,12.40
2010,07,14,00,53,12.40
2010,07,14,00,54,12.40
2010,07,14,00,55,12.30
2010,07,14,00,56,12.30
2010,07,14,00,57,12.30
2010,07,14,00,58,12.30
2010,07,14,00,59,12.30
2010,07,14,01,00,12.30
2010,07,14,01,01,12.20
2010,07,14,01,02,12.20
2010,07,14,01,03,12.20
2010,07,14,01,04,12.20
2010,07,14,01,05,12.10
2010,07,14,01,06,12.10
2010,07,14,01,07,12.10
2010,07,14,01,08,12.10
2010,07,14,01,09,12.10
2010,07,14,01,10,12.00
2010,07,14,01,11,12.00
2010,07,14,01,12,12.00
2010,07,14,01,13,11.90
2010,07,14,01,14,11.90
2010,07,14,01,15,11.90
2010,07,14,01,16,11.90
2010,07,14,01,17,11.90
2010,07,14,01,18,11.80
2010,07,14,01,19,11.80
2010,07,14,01,20,11.80
2010,07,14,01,21,11.80
2010,07,14,01,22,11.70
2010,07,14,01,23,11.70
2010,07,14,01,24,11.70
2010,07,14,01,25,11.70
2010,07,14,01,26,11.70
2010,07,14,01,27,11.60
2010,07,14,01,28,11.60
2010,07,14,01,29,11.60
2010,07,14,01,30,11.60
2010,07,14,01,31,11.60
2010,07,14,01,32,11.60
2010,07,14,01,33,11.50
2010,07,14,01,34,11.50
2010,07,14,01,35,11.50
2010,07,14,01,36,11.40
2010,07,14,01,37,11.40
2010,07,14,01,38,11.40
2010,07,14,01,39,11.40
2010,07,14,01,40,11.40
2010,07,14,01,41,11.40
2010,07,14,01,42,11.30
2010,07,14,01,43,11.30
2010,07,14,01,44,11.30
2010,07,14,01,45,11.30
2010,07,14,01,46,11.30
2010,07,14,01,47,11.30
2010,07,14,01,48,11.30
2010,07,14,01,49,11.30
2010,07,14,01,50,11.30
2010,07,14,01,51,11.30
2010,07,14,01,52,11.30
2010,07,14,01,53,11.20
2010,07,14,01,54,11.20
2010,07,14,01,55,11.20
2010,07,14,01,56,11.20
2010,07,14,01,57,11.20
2010,07,14,01,58,11.20
2010,07,14,01,59,11.20
2010,07,14,02,00,11.20
2010,07,14,02,01,11.20
2010,07,14,02,02,11.20
2010,07,14,02,03,11.20
2010,07,14,02,04,11.20
2010,07,14,02,05,11.10
2010,07,14,02,06,11.10
2010,07,14,02,07,11.10
2010,07,14,02,08,11.10
2010,07,14,02,09,11.10
2010,07,14,02,10,11.10
2010,07,14,02,11,11.10
2010,07,14,02,12,11.10
2010,07,14,02,13,11.10
2010,07,14,02,14,11.00
2010,07,14,02,15,11.00
2010,07,14,02,16,11.00
2010,07,14,02,17,11.00
2010,07,14,02,18,11.00
2010,07,14,02,19,11.00
2010,07,14,02,20,10.90
2010,07,14,02,21,10.90
2010,07,14,02,22,10.90
2010,07,14,02,23,10.90
2010,07,14,02,24,11.00
2010,07,14,02,25,11.00
2010,07,14,02,26,11.00
2010,07,14,02,27,11.00
2010,07,14,02,28,11.00
2010,07,14,02,29,11.00
2010,07,14,02,30,10.90
2010,07,14,02,31,10.90
2010,07,14,02,32,10.90
2010,07,14,02,33,10.90
2010,07,14,02,34,10.90
2010,07,14,02,35,10.90
2010,07,14,02,36,10.90
2010,07,14,02,37,10.90
2010,07,14,02,38,10.90
2010,07,14,02,39,10.90
2010,07,14,02,40,10.90
2010,07,14,02,41,10.80
2010,07,14,02,42,10.80
2010,07,14,02,43,10.80
2010,07,14,02,44,10.80
2010,07,14,02,45,10.80
2010,07,14,02,46,10.80
2010,07,14,02,47,10.80
2010,07,14,02,48,10.80
2010,07,14,02,49,10.80
2010,07,14,02,50,10.70
2010,07,14,02,51,10.70
2010,07,14,02,52,10.70
2010,07,14,02,53,10.70
2010,07,14,02,54,10.70
2010,07,14,02,55,10.70
2010,07,14,02,56,10.70
2010,07,14,02,57,10.60
2010,07,14,02,58,10.60
2010,07,14,02,59,10.60
2010,07,14,03,00,10.60
2010,07,14,03,01,10.60
2010,07,14,03,02,10.60
2010,07,14,03,06,10.60
2010,07,14,03,07,10.60
2010,07,14,03,08,10.60
2010,07,14,03,09,10.60
2010,07,14,03,10,10.60
2010,07,14,03,11,10.60
2010,07,14,03,12,10.60
2010,07,14,03,13,10.60
2010,07,14,03,14,10.60
2010,07,14,03,15,10.70
2010,07,14,03,16,10.70
2010,07,14,03,17,10.70
2010,07,14,03,18,10.70
2010,07,14,03,19,10.70
2010,07,14,03,20,10.70
2010,07,14,03,21,10.70
2010,07,14,03,22,10.70
2010,07,14,03,23,10.70
2010,07,14,03,24,10.70
2010,07,14,03,25,10.70
2010,07,14,03,26,10.70
2010,07,14,03,27,10.70
2010,07,14,03,28,10.70
2010,07,14,03,29,10.70
2010,07,14,03,30,10.70
2010,07,14,03,31,10.70
2010,07,14,03,32,10.70
2010,07,14,03,33,10.70
2010,07,14,03,34,10.70
2010,07,14,03,35,10.70
2010,07,14,03,36,10.70
2010,07,14,03,37,10.70
2010,07,14,03,38,10.70
2010,07,14,03,39,10.70
2010,07,14,03,40,10.70
2010,07,14,03,41,10.70
2010,07,14,03,42,10.70
2010,07,14,03,43,10.70
2010,07,14,03,44,10.70
2010,07,14,03,45,10.70
2010,07,14,03,46,10.60
2010,07,14,03,47,10.60
2010,07,14,03,48,10.60
2010,07,14,03,49,10.60
2010,07,14,03,50,10.60
2010,07,14,03,51,10.60
2010,07,14,03,52,10.50
2010,07,14,03,53,10.50
2010,07,14,03,54,10.50
2010,07,14,03,55,10.50
2010,07,14,03,56,10.40
2010,07,14,03,57,10.40
2010,07,14,03,58,10.40
2010,07,14,03,59,10.40
2010,07,14,04,00,10.30
2010,07,14,04,01,10.30
2010,07,14,04,02,10.30
2010,07,14,04,03,10.30
2010,07,14,04,04,10.20
2010,07,14,04,05,10.20
2010,07,14,04,06,10.20
2010,07,14,04,07,10.20
2010,07,14,04,08,10.20
2010,07,14,04,09,10.10
2010,07,14,04,10,10.10
2010,07,14,04,11,10.10
2010,07,14,04,12,10.10
2010,07,14,04,13,10.10
2010,07,14,04,14,10.00
2010,07,14,04,15,10.00
2010,07,14,04,16,10.00
2010,07,14,04,17,9.90
2010,07,14,04,18,9.90
2010,07,14,04,19,9.90
2010,07,14,04,20,9.90
2010,07,14,04,21,9.90
2010,07,14,04,22,9.80
2010,07,14,04,23,9.80
2010,07,14,04,24,9.80
2010,07,14,04,25,9.80
2010,07,14,04,26,9.80
2010,07,14,04,27,9.80
2010,07,14,04,28,9.70
2010,07,14,04,29,9.70
2010,07,14,04,30,9.70
2010,07,14,04,31,9.70
2010,07,14,04,32,9.70
2010,07,14,04,33,9.70
2010,07,14,04,34,9.70
2010,07,14,04,35,9.70
2010,07,14,04,36,9.60
2010,07,14,04,37,9.60
2010,07,14,04,38,9.60
2010,07,14,04,39,9.60
2010,07,14,04,40,9.60
2010,07,14,04,41,9.60
2010,07,14,04,42,9.60
2010,07,14,04,43,9.60
2010,07,14,04,44,9.60
2010,07,14,04,45,9.60
2010,07,14,04,46,9.60
2010,07,14,04,47,9.60
2010,07,14,04,48,9.60
2010,07,14,04,49,9.50
2010,07,14,04,50,9.50
2010,07,14,04,51,9.50
2010,07,14,04,52,9.40
2010,07,14,04,53,9.40
2010,07,14,04,54,9.40
2010,07,14,04,55,9.40
2010,07,14,04,56,9.40
2010,07,14,04,57,9.30
2010,07,14,04,58,9.30
2010,07,14,04,59,9.30
2010,07,14,05,00,9.30
2010,07,14,05,01,9.30
2010,07,14,05,02,9.30
2010,07,14,05,03,9.30
2010,07,14,05,04,9.30
2010,07,14,05,05,9.30
2010,07,14,05,06,9.30
2010,07,14,05,07,9.20
2010,07,14,05,08,9.20
2010,07,14,05,09,9.20
2010,07,14,05,10,9.20
2010,07,14,05,11,9.20
2010,07,14,05,12,9.20
2010,07,14,05,13,9.20
2010,07,14,05,14,9.20
2010,07,14,05,15,9.20
2010,07,14,05,16,9.20
2010,07,14,05,17,9.20
2010,07,14,05,18,9.20
2010,07,14,05,19,9.20
2010,07,14,05,20,9.20
2010,07,14,05,21,9.20
2010,07,14,05,22,9.20
2010,07,14,05,23,9.20
2010,07,14,05,24,9.20
2010,07,14,05,25,9.20
2010,07,14,05,26,9.10
2010,07,14,05,27,9.10
2010,07,14,05,28,9.10
2010,07,14,05,29,9.10
2010,07,14,05,30,9.10
2010,07,14,05,31,9.10
2010,07,14,05,32,9.10
2010,07,14,05,33,9.10
2010,07,14,05,34,9.10
2010,07,14,05,35,9.10
2010,07,14,05,36,9.10
2010,07,14,05,37,9.10
2010,07,14,05,38,9.10
2010,07,14,05,39,9.00
2010,07,14,05,40,9.00
2010,07,14,05,41,9.00
2010,07,14,05,42,9.00
2010,07,14,05,43,9.00
2010,07,14,05,44,9.00
2010,07,14,05,45,9.00
2010,07,14,05,46,9.00
2010,07,14,05,47,9.00
2010,07,14,05,48,9.00
2010,07,14,05,49,9.00
2010,07,14,05,50,9.00
2010,07,14,05,51,9.10
2010,07,14,05,52,9.10
2010,07,14,05,53,9.00
2010,07,14,05,54,9.00
2010,07,14,05,55,9.00
2010,07,14,05,56,9.00
2010,07,14,05,57,9.00
2010,07,14,05,58,9.00
2010,07,14,05,59,9.00
2010,07,14,06,00,9.00
2010,07,14,06,01,9.00
2010,07,14,06,02,9.00
2010,07,14,06,03,9.00
2010,07,14,06,04,8.90
2010,07,14,06,05,8.90
2010,07,14,06,06,8.90
2010,07,14,06,07,8.90
2010,07,14,06,08,8.90
2010,07,14,06,09,8.90
2010,07,14,06,10,8.90
2010,07,14,06,11,8.90
2010,07,14,06,12,8.90
2010,07,14,06,13,9.00
2010,07,14,06,14,9.00
2010,07,14,06,15,9.00
2010,07,14,06,16,9.00
2010,07,14,06,17,9.00
2010,07,14,06,18,9.00
2010,07,14,06,19,9.00
2010,07,14,06,20,9.00
2010,07,14,06,21,9.00
2010,07,14,06,22,9.00
2010,07,14,06,23,9.00
2010,07,14,06,24,9.00
2010,07,14,06,25,9.00
2010,07,14,06,26,9.00
2010,07,14,06,27,9.10
2010,07,14,06,28,9.10
2010,07,14,06,29,9.10
2010,07,14,06,30,9.10
2010,07,14,06,31,9.20
2010,07,14,06,32,9.20
2010,07,14,06,33,9.20
2010,07,14,06,34,9.20
2010,07,14,06,35,9.30
2010,07,14,06,36,9.30
2010,07,14,06,37,9.30
2010,07,14,06,38,9.30
2010,07,14,06,39,9.30
2010,07,14,06,40,9.30
2010,07,14,06,41,9.30
2010,07,14,06,42,9.40
2010,07,14,06,43,9.40
2010,07,14,06,44,9.40
2010,07,14,06,45,9.40
2010,07,14,06,46,9.40
2010,07,14,06,47,9.40
2010,07,14,06,48,9.40
2010,07,14,06,49,9.40
2010,07,14,06,50,9.40
2010,07,14,06,51,9.40
2010,07,14,06,52,9.40
2010,07,14,06,53,9.40
2010,07,14,06,54,9.50
2010,07,14,06,55,9.50
2010,07,14,06,56,9.50
2010,07,14,06,57,9.60
2010,07,14,06,58,9.60
2010,07,14,06,59,9.60
2010,07,14,07,00,9.60
2010,07,14,07,01,9.60
2010,07,14,07,02,9.60
2010,07,14,07,03,9.60
2010,07,14,07,04,9.60
2010,07,14,07,05,9.60
2010,07,14,07,06,9.70
2010,07,14,07,07,9.70
2010,07,14,07,08,9.70
2010,07,14,07,09,9.70
2010,07,14,07,10,9.80
2010,07,14,07,11,9.80
2010,07,14,07,12,9.80
2010,07,14,07,13,9.90
2010,07,14,07,14,9.90
2010,07,14,07,15,10.00
2010,07,14,07,16,10.00
2010,07,14,07,17,10.10
2010,07,14,07,18,10.10
2010,07,14,07,19,10.20
2010,07,14,07,20,10.20
2010,07,14,07,21,10.20
2010,07,14,07,22,10.30
2010,07,14,07,23,10.30
2010,07,14,07,24,10.40
2010,07,14,07,25,10.40
2010,07,14,07,26,10.40
2010,07,14,07,27,10.50
2010,07,14,07,28,10.50
2010,07,14,07,29,10.60
2010,07,14,07,30,10.60
2010,07,14,07,31,10.60
2010,07,14,07,32,10.70
2010,07,14,07,33,10.80
2010,07,14,07,34,10.80
2010,07,14,07,35,10.80
2010,07,14,07,36,10.90
2010,07,14,07,37,10.90
2010,07,14,07,38,11.00
2010,07,14,07,39,11.00
2010,07,14,07,40,11.10
2010,07,14,07,41,11.10
2010,07,14,07,42,11.10
2010,07,14,07,43,11.20
2010,07,14,07,44,11.20
2010,07,14,07,45,11.30
2010,07,14,07,46,11.30
2010,07,14,07,47,11.40
2010,07,14,07,48,11.40
2010,07,14,07,49,11.50
2010,07,14,07,50,11.60
2010,07,14,07,51,11.60
2010,07,14,07,52,11.70
2010,07,14,07,53,11.70
2010,07,14,07,54,11.70
2010,07,14,07,55,11.80
2010,07,14,07,56,11.80
2010,07,14,07,57,11.80
2010,07,14,07,58,11.90
2010,07,14,07,59,11.90
2010,07,14,08,00,11.90
2010,07,14,08,01,12.00
2010,07,14,08,02,12.10
2010,07,14,08,03,12.10
2010,07,14,08,04,12.20
2010,07,14,08,05,12.20
2010,07,14,08,06,12.30
2010,07,14,08,07,12.40
2010,07,14,08,08,12.40
2010,07,14,08,09,12.50
2010,07,14,08,10,12.60
2010,07,14,08,11,12.70
2010,07,14,08,12,12.80
2010,07,14,08,13,13.00
2010,07,14,08,14,13.10
2010,07,14,08,15,13.20
2010,07,14,08,16,13.40
2010,07,14,08,17,13.60
2010,07,14,08,18,13.70
2010,07,14,08,19,13.90
2010,07,14,08,20,14.00
2010,07,14,08,21,14.20
2010,07,14,08,22,14.30
2010,07,14,08,23,14.50
2010,07,14,08,24,14.60
2010,07,14,08,25,14.70
2010,07,14,08,26,14.90
2010,07,14,08,27,15.00
2010,07,14,08,28,15.00
2010,07,14,08,29,15.10
2010,07,14,08,30,15.20
2010,07,14,08,31,15.30
2010,07,14,08,32,15.40
2010,07,14,08,33,15.40
2010,07,14,08,34,15.50
2010,07,14,08,35,15.50
2010,07,14,08,36,15.60
2010,07,14,08,37,15.60
2010,07,14,08,38,15.70
2010,07,14,08,39,15.80
2010,07,14,08,40,15.90
2010,07,14,08,41,16.00
2010,07,14,08,42,16.00
2010,07,14,08,43,16.10
2010,07,14,08,44,16.20
2010,07,14,08,45,16.20
2010,07,14,08,46,16.30
2010,07,14,08,47,16.30
2010,07,14,08,48,16.30
2010,07,14,08,49,16.30
2010,07,14,08,50,16.30
2010,07,14,08,51,16.30
2010,07,14,08,52,16.40
2010,07,14,08,53,16.40
2010,07,14,08,54,16.40
2010,07,14,08,55,16.50
2010,07,14,08,56,16.50
2010,07,14,08,57,16.60
2010,07,14,08,58,16.70
2010,07,14,08,59,16.70
2010,07,14,09,00,16.70
2010,07,14,09,01,16.70
2010,07,14,09,02,16.70
2010,07,14,09,03,16.70
2010,07,14,09,04,16.70
2010,07,14,09,05,16.70
2010,07,14,09,06,16.70
2010,07,14,09,07,16.70
2010,07,14,09,08,16.70
2010,07,14,09,09,16.70
2010,07,14,09,10,16.80
2010,07,14,09,11,16.80
2010,07,14,09,12,16.90
2010,07,14,09,13,16.90
2010,07,14,09,14,16.90
2010,07,14,09,15,16.90
2010,07,14,09,16,16.90
2010,07,14,09,17,17.00
2010,07,14,09,18,17.00
2010,07,14,09,19,17.00
2010,07,14,09,20,17.00
2010,07,14,09,21,17.00
2010,07,14,09,22,17.00
2010,07,14,09,23,17.10
2010,07,14,09,24,17.10
2010,07,14,09,25,17.10
2010,07,14,09,26,17.20
2010,07,14,09,27,17.20
2010,07,14,09,28,17.30
2010,07,14,09,29,17.30
2010,07,14,09,30,17.30
2010,07,14,09,31,17.30
2010,07,14,09,32,17.30
2010,07,14,09,33,17.40
2010,07,14,09,34,17.40
2010,07,14,09,35,17.50
2010,07,14,09,36,17.60
2010,07,14,09,37,17.60
2010,07,14,09,38,17.70
2010,07,14,09,39,17.80
2010,07,14,09,40,17.90
2010,07,14,09,41,17.90
2010,07,14,09,42,18.00
2010,07,14,09,43,18.00
2010,07,14,09,44,18.10
2010,07,14,09,45,18.00
2010,07,14,09,46,18.00
2010,07,14,09,47,17.90
2010,07,14,09,48,17.90
2010,07,14,09,49,17.90
2010,07,14,09,50,17.80
2010,07,14,09,51,17.80
2010,07,14,09,52,17.80
2010,07,14,09,53,17.80
2010,07,14,09,54,17.90
2010,07,14,09,55,17.90
2010,07,14,09,56,17.90
2010,07,14,09,57,18.00
2010,07,14,09,58,18.00
2010,07,14,09,59,18.00
2010,07,14,10,00,18.00
2010,07,14,10,01,18.10
2010,07,14,10,02,18.10
2010,07,14,10,03,18.10
2010,07,14,10,04,18.20
2010,07,14,10,05,18.30
2010,07,14,10,06,18.30
2010,07,14,10,07,18.40
2010,07,14,10,08,18.50
2010,07,14,10,09,18.60
2010,07,14,10,10,18.60
2010,07,14,10,11,18.60
2010,07,14,10,12,18.60
2010,07,14,10,13,18.60
2010,07,14,10,14,18.60
2010,07,14,10,15,18.60
2010,07,14,10,16,18.60
2010,07,14,10,17,18.60
2010,07,14,10,18,18.60
2010,07,14,10,19,18.60
2010,07,14,10,20,18.60
2010,07,14,10,21,18.60
2010,07,14,10,22,18.70
2010,07,14,10,23,18.70
2010,07,14,10,24,18.60
2010,07,14,10,25,18.70
2010,07,14,10,26,18.70
2010,07,14,10,27,18.70
2010,07,14,10,28,18.70
2010,07,14,10,29,18.70
2010,07,14,10,30,18.80
2010,07,14,10,31,18.90
2010,07,14,10,32,18.90
2010,07,14,10,33,19.00
2010,07,14,10,34,19.10
2010,07,14,10,35,19.10
2010,07,14,10,36,19.20
2010,07,14,10,37,19.20
2010,07,14,10,38,19.20
2010,07,14,10,39,19.20
2010,07,14,10,40,19.10
2010,07,14,10,41,19.10
2010,07,14,10,42,19.10
2010,07,14,10,43,19.20
2010,07,14,10,44,19.30
2010,07,14,10,45,19.30
2010,07,14,10,46,19.40
2010,07,14,10,47,19.50
2010,07,14,10,48,19.60
2010,07,14,10,49,19.60
2010,07,14,10,50,19.70
2010,07,14,10,51,19.80
2010,07,14,10,52,19.80
2010,07,14,10,53,19.80
2010,07,14,10,54,19.80
2010,07,14,10,55,19.80
2010,07,14,10,56,19.80
2010,07,14,10,57,19.80
2010,07,14,10,58,19.80
2010,07,14,10,59,19.80
2010,07,14,11,00,19.80
2010,07,14,11,01,19.80
2010,07,14,11,02,19.80
2010,07,14,11,03,19.90
2010,07,14,11,04,19.90
2010,07,14,11,05,20.00
2010,07,14,11,06,20.10
2010,07,14,11,07,20.00
2010,07,14,11,08,20.00
2010,07,14,11,09,20.00
2010,07,14,11,10,20.00
2010,07,14,11,11,20.00
2010,07,14,11,12,20.00
2010,07,14,11,13,20.10
2010,07,14,11,14,20.20
2010,07,14,11,15,20.30
2010,07,14,11,16,20.30
2010,07,14,11,17,20.40
2010,07,14,11,18,20.50
2010,07,14,11,19,20.60
2010,07,14,11,20,20.70
2010,07,14,11,21,20.80
2010,07,14,11,22,20.90
2010,07,14,11,23,21.00
2010,07,14,11,24,21.10
2010,07,14,11,25,21.10
2010,07,14,11,26,21.10
2010,07,14,11,27,21.20
2010,07,14,11,28,21.20
2010,07,14,11,29,21.20
2010,07,14,11,30,21.10
2010,07,14,11,31,21.10
2010,07,14,11,32,21.10
2010,07,14,11,33,21.20
2010,07,14,11,34,21.20
2010,07,14,11,35,21.20
2010,07,14,11,36,21.30
2010,07,14,11,37,21.30
2010,07,14,11,38,21.40
2010,07,14,11,39,21.50
2010,07,14,11,40,21.50
2010,07,14,11,41,21.60
2010,07,14,11,42,21.60
2010,07,14,11,43,21.60
2010,07,14,11,44,21.60
2010,07,14,11,45,21.40
2010,07,14,11,46,21.30
2010,07,14,11,47,21.20
2010,07,14,11,48,21.10
2010,07,14,11,49,21.10
2010,07,14,11,50,21.00
2010,07,14,11,51,21.00
2010,07,14,11,52,21.00
2010,07,14,11,53,21.00
2010,07,14,11,54,21.10
2010,07,14,11,55,21.10
2010,07,14,11,56,21.10
2010,07,14,11,57,21.10
2010,07,14,11,58,21.20
2010,07,14,11,59,21.20
2010,07,14,12,00,21.20
2010,07,14,12,01,21.10
2010,07,14,12,02,21.20
2010,07,14,12,03,21.20
2010,07,14,12,04,21.20
2010,07,14,12,05,21.20
2010,07,14,12,14,21.10
2010,07,14,12,15,21.10
2010,07,14,12,16,21.10
2010,07,14,12,17,21.10
2010,07,14,12,18,21.20
2010,07,14,12,19,21.20
2010,07,14,12,20,21.10
2010,07,14,12,21,21.00
2010,07,14,12,22,20.90
2010,07,14,12,23,20.80
2010,07,14,12,24,20.80
2010,07,14,12,25,20.80
2010,07,14,12,26,20.80
2010,07,14,12,27,20.80
2010,07,14,12,28,20.90
2010,07,14,12,29,20.90
2010,07,14,12,30,21.00
2010,07,14,12,31,21.10
2010,07,14,12,32,21.20
2010,07,14,12,33,21.20
2010,07,14,12,34,21.20
2010,07,14,12,35,21.20
2010,07,14,12,36,21.20
2010,07,14,12,37,21.30
2010,07,14,12,38,21.30
2010,07,14,12,39,21.40
2010,07,14,12,40,21.50
2010,07,14,12,41,21.60
2010,07,14,12,42,21.60
2010,07,14,12,43,21.60
2010,07,14,12,44,21.50
2010,07,14,12,45,21.50
2010,07,14,12,46,21.50
2010,07,14,12,47,21.40
2010,07,14,12,48,21.40
2010,07,14,12,49,21.40
2010,07,14,12,50,21.50
2010,07,14,12,51,21.50
2010,07,14,12,52,21.40
2010,07,14,12,53,21.40
2010,07,14,12,54,21.40
2010,07,14,12,55,21.50
2010,07,14,12,56,21.50
2010,07,14,12,57,21.60
2010,07,14,12,58,21.70
2010,07,14,12,59,21.80
2010,07,14,13,00,21.70
2010,07,14,13,01,21.70
2010,07,14,13,02,21.70
2010,07,14,13,03,21.70
2010,07,14,13,04,21.70
2010,07,14,13,05,21.70
2010,07,14,13,06,21.80
2010,07,14,13,07,21.70
2010,07,14,13,08,21.70
2010,07,14,13,09,21.60
2010,07,14,13,10,21.60
2010,07,14,13,11,21.60
2010,07,14,13,12,21.60
2010,07,14,13,13,21.60
2010,07,14,13,14,21.70
2010,07,14,13,15,21.70
2010,07,14,13,16,21.70
2010,07,14,13,17,21.60
2010,07,14,13,18,21.60
2010,07,14,13,19,21.70
2010,07,14,13,20,21.70
2010,07,14,13,21,21.70
2010,07,14,13,22,21.70
2010,07,14,13,23,21.70
2010,07,14,13,24,21.70
2010,07,14,13,25,21.70
2010,07,14,13,26,21.70
2010,07,14,13,27,21.70
2010,07,14,13,28,21.70
2010,07,14,13,29,21.70
2010,07,14,13,30,21.70
2010,07,14,13,31,21.70
2010,07,14,13,32,21.70
2010,07,14,13,33,21.80
2010,07,14,13,34,21.80
2010,07,14,13,35,21.80
2010,07,14,13,36,21.80
2010,07,14,13,37,21.70
2010,07,14,13,38,21.70
2010,07,14,13,39,21.70
2010,07,14,13,40,21.70
2010,07,14,13,41,21.60
2010,07,14,13,42,21.60
2010,07,14,13,43,21.60
2010,07,14,13,44,21.60
2010,07,14,13,45,21.70
2010,07,14,13,46,21.70
2010,07,14,13,47,21.80
2010,07,14,13,48,21.80
2010,07,14,13,49,21.90
2010,07,14,13,50,21.90
2010,07,14,13,51,21.70
2010,07,14,13,52,21.70
2010,07,14,13,53,21.70
2010,07,14,13,54,21.80
2010,07,14,13,55,21.80
2010,07,14,13,56,21.80
2010,07,14,13,57,21.70
2010,07,14,13,58,21.80
2010,07,14,13,59,21.80
2010,07,14,14,00,21.80
2010,07,14,14,01,21.80
2010,07,14,14,02,21.90
2010,07,14,14,03,22.00
2010,07,14,14,04,22.00
2010,07,14,14,05,22.10
2010,07,14,14,06,22.20
2010,07,14,14,07,22.20
2010,07,14,14,08,22.20
2010,07,14,14,09,22.30
2010,07,14,14,10,22.30
2010,07,14,14,11,22.30
2010,07,14,14,12,22.20
2010,07,14,14,13,22.20
2010,07,14,14,14,22.20
2010,07,14,14,15,22.20
2010,07,14,14,16,22.20
2010,07,14,14,17,22.20
2010,07,14,14,18,22.20
2010,07,14,14,19,22.10
2010,07,14,14,20,22.20
2010,07,14,14,21,22.20
2010,07,14,14,22,22.20
2010,07,14,14,23,22.30
2010,07,14,14,24,22.20
2010,07,14,14,25,22.10
2010,07,14,14,26,22.10
2010,07,14,14,27,22.10
2010,07,14,14,28,22.00
2010,07,14,14,29,22.00
2010,07,14,14,30,21.90
2010,07,14,14,31,21.90
2010,07,14,14,32,21.90
2010,07,14,14,33,22.00
2010,07,14,14,34,22.10
2010,07,14,14,35,22.10
2010,07,14,14,36,22.20
2010,07,14,14,37,22.30
2010,07,14,14,38,22.30
2010,07,14,14,39,22.50
2010,07,14,14,40,22.60
2010,07,14,14,41,22.70
2010,07,14,14,42,22.80
2010,07,14,14,43,22.80
2010,07,14,14,44,22.70
2010,07,14,14,45,22.70
2010,07,14,14,46,22.70
2010,07,14,14,47,22.70
2010,07,14,14,48,22.70
2010,07,14,14,49,22.60
2010,07,14,14,50,22.60
2010,07,14,14,51,22.60
2010,07,14,14,52,22.60
2010,07,14,14,53,22.70
2010,07,14,14,54,22.70
2010,07,14,14,55,22.70
2010,07,14,14,56,22.80
2010,07,14,14,57,22.80
2010,07,14,14,58,22.80
2010,07,14,14,59,22.80
2010,07,14,15,00,22.80
2010,07,14,15,01,22.70
2010,07,14,15,02,22.60
2010,07,14,15,03,22.60
2010,07,14,15,04,22.60
2010,07,14,15,05,22.50
2010,07,14,15,06,22.40
2010,07,14,15,07,22.40
2010,07,14,15,08,22.30
2010,07,14,15,09,22.30
2010,07,14,15,10,22.30
2010,07,14,15,11,22.30
2010,07,14,15,12,22.40
2010,07,14,15,13,22.40
2010,07,14,15,14,22.40
2010,07,14,15,15,22.40
2010,07,14,15,16,22.40
2010,07,14,15,17,22.40
2010,07,14,15,18,22.50
2010,07,14,15,19,22.60
2010,07,14,15,20,22.60
2010,07,14,15,21,22.70
2010,07,14,15,22,22.80
2010,07,14,15,23,22.90
2010,07,14,15,24,23.00
2010,07,14,15,25,23.10
2010,07,14,15,26,23.20
2010,07,14,15,27,23.20
2010,07,14,15,28,23.20
2010,07,14,15,29,23.10
2010,07,14,15,30,23.00
2010,07,14,15,31,22.90
2010,07,14,15,32,22.90
2010,07,14,15,33,22.80
2010,07,14,15,34,22.70
2010,07,14,15,35,22.50
2010,07,14,15,36,22.40
2010,07,14,15,37,22.30
2010,07,14,15,38,22.20
2010,07,14,15,39,22.30
2010,07,14,15,40,22.30
2010,07,14,15,41,22.30
2010,07,14,15,42,22.40
2010,07,14,15,43,22.40
2010,07,14,15,44,22.40
2010,07,14,15,45,22.40
2010,07,14,15,46,22.50
2010,07,14,15,47,22.50
2010,07,14,15,48,22.50
2010,07,14,15,49,22.60
2010,07,14,15,50,22.60
2010,07,14,15,51,22.70
2010,07,14,15,52,22.70
2010,07,14,15,53,22.70
2010,07,14,15,54,22.80
2010,07,14,15,55,22.80
2010,07,14,15,56,22.80
2010,07,14,15,57,22.80
2010,07,14,15,58,22.80
2010,07,14,15,59,22.80
2010,07,14,16,00,22.80
2010,07,14,16,01,22.80
2010,07,14,16,02,22.80
2010,07,14,16,03,22.80
2010,07,14,16,04,22.80
2010,07,14,16,05,22.80
2010,07,14,16,06,22.90
2010,07,14,16,07,22.90
2010,07,14,16,08,22.90
2010,07,14,16,09,22.90
2010,07,14,16,10,22.90
2010,07,14,16,11,23.00
2010,07,14,16,12,23.00
2010,07,14,16,13,23.00
2010,07,14,16,14,23.10
2010,07,14,16,15,23.00
2010,07,14,16,16,23.00
2010,07,14,16,17,23.00
2010,07,14,16,18,23.00
2010,07,14,16,19,23.00
2010,07,14,16,20,23.00
2010,07,14,16,21,23.10
2010,07,14,16,22,23.00
2010,07,14,16,23,23.00
2010,07,14,16,24,23.00
2010,07,14,16,25,23.00
2010,07,14,16,26,23.10
2010,07,14,16,27,23.10
2010,07,14,16,28,23.10
2010,07,14,16,29,23.20
2010,07,14,16,30,23.20
2010,07,14,16,31,23.10
2010,07,14,16,32,23.10
2010,07,14,16,33,23.00
2010,07,14,16,34,22.90
2010,07,14,16,35,22.80
2010,07,14,16,36,22.70
2010,07,14,16,37,22.70
2010,07,14,16,38,22.60
2010,07,14,16,39,22.60
2010,07,14,16,40,22.60
2010,07,14,16,41,22.60
2010,07,14,16,42,22.70
2010,07,14,16,43,22.70
2010,07,14,16,44,22.70
2010,07,14,16,45,22.70
2010,07,14,16,46,22.70
2010,07,14,16,47,22.70
2010,07,14,16,48,22.80
2010,07,14,16,49,22.80
2010,07,14,16,50,22.80
2010,07,14,16,51,22.80
2010,07,14,16,52,22.90
2010,07,14,16,53,22.90
2010,07,14,16,54,22.90
2010,07,14,16,55,22.90
2010,07,14,16,56,22.80
2010,07,14,16,57,22.90
2010,07,14,16,58,22.90
2010,07,14,16,59,22.90
2010,07,14,17,00,22.90
2010,07,14,17,01,22.90
2010,07,14,17,02,22.80
2010,07,14,17,03,22.80
2010,07,14,17,04,22.80
2010,07,14,17,05,22.80
2010,07,14,17,06,22.80
2010,07,14,17,07,22.80
2010,07,14,17,08,22.70
2010,07,14,17,09,22.70
2010,07,14,17,10,22.70
2010,07,14,17,11,22.80
2010,07,14,17,12,22.80
2010,07,14,17,13,22.80
2010,07,14,17,14,22.90
2010,07,14,17,15,22.90
2010,07,14,17,16,23.00
2010,07,14,17,17,23.00
2010,07,14,17,18,23.10
2010,07,14,17,19,23.10
2010,07,14,17,20,23.10
2010,07,14,17,21,23.20
2010,07,14,17,22,23.20
2010,07,14,17,23,23.30
2010,07,14,17,24,23.30
2010,07,14,17,25,23.30
2010,07,14,17,26,23.40
2010,07,14,17,27,23.40
2010,07,14,17,28,23.40
2010,07,14,17,29,23.40
2010,07,14,17,30,23.40
2010,07,14,17,31,23.40
2010,07,14,17,32,23.50
2010,07,14,17,33,23.50
2010,07,14,17,34,23.50
2010,07,14,17,35,23.40
2010,07,14,17,36,23.40
2010,07,14,17,37,23.30
2010,07,14,17,38,23.30